Location: Sabalos
(43.2860°N, 0.1414°E)
Time: 20:21:47
(UTC+00:00)

Cosmos 1933 - Pass Details

Date: 05 July 2020
Orbit: 548 x 562 km, 82.5° (Epoch: 14 August)

Event Time Altitude Azimuth Distance (km) Brightness Sun altitude
Rises 23:32:34 0° 353° (N) 2,730 8.3 -23.7°
Reaches altitude 10° 23:34:44 10° 354° (N) 1,832 7.1 -23.7°
Enters shadow 23:38:30 73° 36° (NE) 581 3.4 -23.8°
